Regional Weather Roundup
Issued by NWS Kansas City/Pleasant Hill, MO

Home | Current Version | Previous Version | Graphics & Text | Print | Product List | Glossary Off
Versions: 1 2 3 4 5 6 7 8 9 10 11 12 13 14 15 16 17 18 19 20 21 22 23 24 25 26 27 28 29 30 31 32 33 34 35 36 37 38 39 40 41 42 43 44 45 46 47 48 49 50

000
ASUS43 KEAX 020310
RWREAX

WEATHER ROUNDUP FOR EASTERN KANSAS AND NORTHWEST MISSOURI
NATIONAL WEATHER SERVICE KANSAS CITY/PLEASANT HILL MO
1000 PM CDT SAT AUG 01 2015

KSZ040-057-103>105-MOZ028-029-037-043-020400-
...KANSAS CITY METROPOLITAN AREA...

CITY           SKY/WX    TMP DP  RH WIND       PRES   REMARKS
K.C. INTL      PTCLDY    74  62  66 SE10      29.97R
K.C. DOWNTOWN  PTCLDY    77  60  55 E6        29.96S
LEES SUMMIT    CLEAR     74  59  59 SE7       29.98S
OLATHE - IXD   CLEAR     74  65  73 SE7       29.98S
OLATHE - OJC   CLEAR     73  62  68 SE7       29.97S
LAWRENCE       CLEAR     77  68  73 SE9       29.96R

$$

MOZ001>008-011>017-020>025-030>033-038>040-044>046-053-054-020400-
...NORTHERN AND CENTRAL MISSOURI...

CITY           SKY/WX    TMP DP  RH WIND       PRES   REMARKS
ST. JOSEPH     MOCLDY    75  63  66 S6        29.96R
MOSBY          PTCLDY    70  63  78 CALM      29.97S
WARRENSBURG    CLEAR     70  63  78 CALM      29.96F
WHITEMAN AFB   CLEAR     70  65  85 CALM      29.96S
CLINTON        CLEAR     72  66  83 CALM      29.98S
SEDALIA        PTCLDY    72  66  81 SW12      29.98R
WARSAW         NOT AVBL
CHILLICOTHE      N/A     71  59  65 NE7       29.99S
KIRKSVILLE     LGT RAIN  69  63  81 SW5       29.98R

$$

MOZ041-047>049-056>058-063>065-088>090-097-020400-
...EASTERN AND SOUTHERN MISSOURI...

CITY           SKY/WX    TMP DP  RH WIND       PRES   REMARKS
ST. LOUIS INTL CLOUDY    85  70  60 SW3       29.98R
SPIRIT OF STL  MOCLDY    77  74  90 CALM      29.96R
COLUMBIA       CLOUDY    71  69  93 NE6       29.98R
JEFFERSON CITY MOCLDY    72  67  84 SE3       29.96S
ROLLA          PTCLDY    70  68  93 SE5       29.99R
OSAGE BEACH    MOCLDY    73  68  83 S6        29.98F
SPRINGFIELD    CLEAR     78  64  61 SE5       30.00R
BRANSON        CLEAR     77  63  61 CALM      30.02R
JOPLIN         PTCLDY    77  67  71 S7        29.99R
WEST PLAINS    CLEAR     73  68  84 CALM      30.02S

$$

IAZ060-094-KSZ022-034>040-054-083-096-NEZ052-066-093-020400-
...KANSAS...SOUTHEAST NEBRASKA AND IOWA...

CITY           SKY/WX    TMP DP  RH WIND       PRES   REMARKS
TOPEKA         CLEAR     80  70  71 SE12      29.94R
MANHATTAN      CLEAR     80  70  71 CALM      29.93R
EMPORIA        PTCLDY    79  71  76 SE8       29.96R
CHANUTE        CLEAR     77  70  79 S7        29.97R
WICHITA        PTCLDY    81  71  71 S8        29.96R
OMAHA          PTCLDY    76  71  85 SE8       29.90R
LINCOLN        MOCLDY    77  63  61 S5        29.92R
FALLS CITY     MOCLDY    78  74  87 SE3       29.92R
LAMONI         PTCLDY    74  66  76 S10       29.96R
DES MOINES     PTCLDY    79  71  76 S6        29.90R

$$




USA.gov is the U.S. government's official web portal to all federal, state and local government web resources and services.